Weather History for KADM - September, 2013

Change the Weather History Date:

Monday, September 30, 2013

  Actual Average Record
Temperature  
Mean Temperature 54 °F -  
Max Temperature 61 °F 79 °F 96 °F (1998)
Min Temperature 48 °F 57 °F 48 °F (2013)
Degree Days  
Heating Degree Days 10    
Growing Degree Days 4 (Base 50)    
Moisture  
Dew Point 52 °F    
Average Humidity 98    
Maximum Humidity 100    
Minimum Humidity 80    
Precipitation  
Precipitation 0.00 in - - ()
Sea Level Pressure  
Sea Level Pressure 29.91 in    
Wind  
Wind Speed 0 mph (SE)    
Max Wind Speed 5 mph    
Max Gust Speed -    
Visibility 8 miles    
Events Fog    
Averages and records for this station are not official NWS values.
T = Trace of Precipitation, MM = Missing Value Source: NWS Daily Summary

Daily Weather History Graph

Daily Weather History Graph

Search for Another Location

Airport or City:

Trip Planner

Search our weather history database for the weather conditions in past years. The results will help you decide how hot, cold, wet, or windy it might be!

Date:

Astronomy

Sep. 30, 2013 Rise Set
Actual Time 7:22 AM CDT 7:13 PM CDT
Civil Twilight 6:57 AM CDT 7:38 PM CDT
Nautical Twilight 6:27 AM CDT 8:07 PM CDT
Astronomical Twilight 5:58 AM CDT 8:36 PM CDT
Moon 3:10 AM CDT 4:36 PM CDT
Length of Visible Light 12h 41m
Length of Day
11h 51m
Waning Crescent, 19% of the Moon is Illuminated
Sep 30
Waning Crescent
Oct 4
New
Oct 11
First Quarter
Oct 18
Full
Oct 26
Last Quarter

Hourly Weather History & Observations

Time (CDT) Temp. Dew Point Humidity Pressure Visibility Wind Dir Wind Speed Gust Speed Precip Events Conditions
12:15 AM 55.8 °F 55.4 °F 99% 29.95 in 10.0 mi Calm Calm - N/A   Clear
12:35 AM 55.4 °F 55.4 °F 100% 29.95 in 10.0 mi Calm Calm - N/A   Clear
12:55 AM 55.0 °F 54.7 °F 99% 29.94 in 10.0 mi Calm Calm - N/A   Clear
1:15 AM 55.0 °F 54.7 °F 99% 29.94 in 7.0 mi Calm Calm - N/A   Clear
1:35 AM 54.0 °F 53.8 °F 99% 29.94 in 7.0 mi Calm Calm - N/A   Clear
1:55 AM 54.5 °F 54.5 °F 100% 29.93 in 10.0 mi Calm Calm - N/A   Clear
2:15 AM 52.9 °F 52.7 °F 99% 29.92 in 10.0 mi Calm Calm - N/A   Clear
2:35 AM 51.8 °F 51.8 °F 100% 29.92 in 10.0 mi Calm Calm - N/A   Clear
2:55 AM 51.8 °F 51.8 °F 100% 29.92 in 1.8 mi Calm Calm - N/A   Mist
3:15 AM 52.0 °F 52.0 °F 100% 29.91 in 10.0 mi Calm Calm - N/A   Clear
3:35 AM 51.8 °F 51.8 °F 100% 29.91 in 4.0 mi Calm Calm - N/A   Clear
3:55 AM 52.2 °F 52.2 °F 100% 29.90 in 2.5 mi Calm Calm - N/A   Clear
4:15 AM 51.1 °F 51.1 °F 100% 29.90 in 1.0 mi Calm Calm - N/A   Mist
4:35 AM 50.5 °F 50.5 °F 100% 29.90 in 10.0 mi Calm Calm - N/A   Clear
4:55 AM 49.8 °F 49.8 °F 100% 29.90 in 5.0 mi Calm Calm - N/A   Clear
5:15 AM 49.5 °F 49.5 °F 100% 29.90 in 0.5 mi Calm Calm - N/A Fog Fog
5:35 AM 49.1 °F 49.1 °F 100% 29.90 in 10.0 mi Calm Calm - N/A   Clear
5:55 AM 49.1 °F 49.1 °F 100% 29.90 in 10.0 mi Calm Calm - N/A   Clear
6:15 AM 48.6 °F 48.6 °F 100% 29.90 in 7.0 mi Calm Calm - N/A   Clear
6:35 AM 48.7 °F 48.7 °F 100% 29.90 in 1.5 mi Calm Calm - N/A   Mist
7:55 AM 48.2 °F 48.2 °F 100% 29.91 in 10.0 mi Calm Calm - N/A   Clear
8:55 AM 57.2 °F 55.4 °F 94% 29.91 in 10.0 mi Calm Calm - N/A   Clear
8:55 PM - - N/A% 29.84 in 10.0 mi SE 4.6 mph - N/A   Clear
11:35 PM 61.0 °F 55.2 °F 81% 29.85 in 10.0 mi Calm Calm - N/A   Clear
11:55 PM 61.5 °F 55.4 °F 80% 29.85 in 10.0 mi Calm Calm - N/A   Clear